Time,TemperatureF,DewpointF,PressureIn,WindDirection,WindDirectionDegrees,WindSpeedMPH,WindSpeedGustMPH,Humidity,HourlyPrecipIn,Conditions,Clouds,dailyrainin,SolarRadiationWatts/m^2,SoftwareType,DateUTC
2013-05-09 00:01:00,53.0,27.0,-100.00,East,91,2.0,10.0,36,0.00,,,0.07,0.000000,,2013-05-09 06:01:00,
2013-05-09 00:32:00,49.0,28.0,-100.00,North,358,5.0,9.0,44,0.00,,,0.07,0.000000,,2013-05-09 06:32:00,
2013-05-09 00:42:00,49.0,28.0,-100.00,North,358,5.0,9.0,44,0.00,,,0.07,0.000000,,2013-05-09 06:42:00,
2013-05-09 00:52:00,49.0,28.0,-100.00,North,358,5.0,9.0,44,0.00,,,0.07,0.000000,,2013-05-09 06:52:00,
2013-05-09 01:01:00,49.0,28.0,-100.00,North,358,5.0,9.0,44,0.00,,,0.07,0.000000,,2013-05-09 07:01:00,
2013-05-09 01:32:00,48.0,27.0,-100.00,North,359,3.0,7.0,44,0.00,,,0.07,0.000000,,2013-05-09 07:32:00,
2013-05-09 01:43:00,48.0,27.0,-100.00,North,359,3.0,7.0,44,0.00,,,0.07,0.000000,,2013-05-09 07:43:00,
2013-05-09 01:52:00,48.0,27.0,-100.00,North,359,3.0,7.0,44,0.00,,,0.07,0.000000,,2013-05-09 07:52:00,
2013-05-09 02:02:00,48.0,27.0,-100.00,North,359,3.0,7.0,44,0.00,,,0.07,0.000000,,2013-05-09 08:02:00,
2013-05-09 02:32:00,47.0,27.0,-100.00,North,351,3.0,6.0,45,-99.99,,,0.07,0.000000,,2013-05-09 08:32:00,
2013-05-09 02:42:00,47.0,27.0,-100.00,North,351,3.0,6.0,45,-99.99,,,0.07,0.000000,,2013-05-09 08:42:00,
2013-05-09 02:52:00,47.0,27.0,-100.00,North,351,3.0,6.0,45,-99.99,,,0.07,0.000000,,2013-05-09 08:52:00,
2013-05-09 03:02:00,47.0,27.0,-100.00,North,351,3.0,6.0,45,-99.99,,,0.07,0.000000,,2013-05-09 09:02:00,
2013-05-09 03:32:00,47.0,27.0,-100.00,NNW,348,4.0,6.0,46,0.00,,,0.07,0.000000,,2013-05-09 09:32:00,
2013-05-09 03:43:00,47.0,27.0,-100.00,NNW,348,4.0,6.0,46,0.00,,,0.07,0.000000,,2013-05-09 09:43:00,
2013-05-09 03:53:00,47.0,27.0,-100.00,NNW,348,4.0,6.0,46,0.00,,,0.07,0.000000,,2013-05-09 09:53:00,
2013-05-09 04:02:00,47.0,27.0,-100.00,NNW,348,4.0,6.0,46,0.00,,,0.07,0.000000,,2013-05-09 10:02:00,
2013-05-09 04:33:00,46.0,27.0,-100.00,North,11,6.0,6.0,48,0.00,,,0.07,0.000000,,2013-05-09 10:33:00,
2013-05-09 04:42:00,46.0,27.0,-100.00,North,11,6.0,6.0,48,0.00,,,0.07,0.000000,,2013-05-09 10:42:00,
2013-05-09 04:52:00,46.0,27.0,-100.00,North,11,6.0,6.0,48,0.00,,,0.07,0.000000,,2013-05-09 10:52:00,
2013-05-09 05:02:00,46.0,27.0,-100.00,North,11,6.0,6.0,48,0.00,,,0.07,0.000000,,2013-05-09 11:02:00,
2013-05-09 05:32:00,47.0,27.0,-100.00,North,6,5.0,8.0,46,0.00,,,0.07,0.000000,,2013-05-09 11:32:00,
2013-05-09 05:42:00,47.0,27.0,-100.00,North,6,5.0,8.0,46,0.00,,,0.07,0.000000,,2013-05-09 11:42:00,
2013-05-09 05:52:00,47.0,27.0,-100.00,North,6,5.0,8.0,46,0.00,,,0.07,0.000000,,2013-05-09 11:52:00,
2013-05-09 06:01:00,47.0,27.0,-100.00,North,6,5.0,8.0,46,0.00,,,0.07,0.000000,,2013-05-09 12:01:00,
2013-05-09 06:32:00,46.0,28.0,-100.00,North,0,5.0,8.0,49,0.00,,,-99.99,0.000000,,2013-05-09 12:32:00,
2013-05-09 06:42:00,46.0,28.0,-100.00,North,0,5.0,8.0,49,0.00,,,-99.99,0.000000,,2013-05-09 12:42:00,
2013-05-09 06:52:00,46.0,28.0,-100.00,North,0,5.0,8.0,49,0.00,,,-99.99,0.000000,,2013-05-09 12:52:00,
2013-05-09 07:01:00,46.0,28.0,-100.00,North,0,5.0,8.0,49,0.00,,,-99.99,0.000000,,2013-05-09 13:01:00,
2013-05-09 07:32:00,48.0,29.0,-100.00,North,0,6.0,7.0,47,0.00,,,0.07,47.000000,,2013-05-09 13:32:00,
2013-05-09 07:52:00,48.0,29.0,-100.00,North,0,6.0,7.0,47,0.00,,,0.07,47.000000,,2013-05-09 13:52:00,
2013-05-09 08:01:00,48.0,29.0,-100.00,North,0,6.0,7.0,47,0.00,,,0.07,47.000000,,2013-05-09 14:01:00,
2013-05-09 08:32:00,52.0,29.0,-100.00,North,5,5.0,6.0,41,0.00,,,0.07,232.000000,,2013-05-09 14:32:00,
2013-05-09 08:52:00,52.0,29.0,-100.00,North,5,5.0,6.0,41,0.00,,,0.07,232.000000,,2013-05-09 14:52:00,
2013-05-09 09:01:00,52.0,29.0,-100.00,North,5,5.0,6.0,41,0.00,,,0.07,232.000000,,2013-05-09 15:01:00,
2013-05-09 09:33:00,56.0,29.0,-100.00,South,174,4.0,5.0,36,-99.99,,,0.07,396.000000,,2013-05-09 15:33:00,
2013-05-09 10:33:00,58.0,31.0,-100.00,SW,218,5.0,7.0,35,0.00,,,0.07,301.000000,,2013-05-09 16:33:00,
2013-05-09 10:42:00,58.0,31.0,-100.00,SW,218,5.0,7.0,35,0.00,,,0.07,301.000000,,2013-05-09 16:42:00,
2013-05-09 10:53:00,58.0,31.0,-100.00,SW,218,5.0,7.0,35,0.00,,,0.07,301.000000,,2013-05-09 16:53:00,
2013-05-09 11:02:00,58.0,31.0,-100.00,SW,218,5.0,7.0,35,0.00,,,0.07,301.000000,,2013-05-09 17:02:00,
2013-05-09 11:32:00,63.0,35.0,-100.00,SW,221,7.0,12.0,35,0.00,,,0.07,789.000000,,2013-05-09 17:32:00,
2013-05-09 11:42:00,63.0,35.0,-100.00,SW,221,7.0,12.0,35,0.00,,,0.07,789.000000,,2013-05-09 17:42:00,
2013-05-09 11:55:00,63.0,35.0,-100.00,SW,221,7.0,12.0,35,0.00,,,0.07,789.000000,,2013-05-09 17:55:00,
2013-05-09 12:01:00,63.0,35.0,-100.00,SW,221,7.0,12.0,35,0.00,,,0.07,789.000000,,2013-05-09 18:01:00,
2013-05-09 12:32:00,58.0,31.0,-100.00,NW,318,10.0,16.0,36,0.00,,,0.07,299.000000,,2013-05-09 18:32:00,
2013-05-09 12:42:00,58.0,31.0,-100.00,NW,318,10.0,16.0,36,0.00,,,0.07,299.000000,,2013-05-09 18:42:00,
2013-05-09 12:52:00,58.0,31.0,-100.00,NW,318,10.0,16.0,36,0.00,,,0.07,299.000000,,2013-05-09 18:52:00,
2013-05-09 13:01:00,58.0,31.0,-100.00,NW,318,10.0,16.0,36,0.00,,,0.07,299.000000,,2013-05-09 19:01:00,
2013-05-09 14:32:00,59.0,35.0,-100.00,SE,138,9.0,15.0,40,-99.99,,,0.07,475.000000,,2013-05-09 20:32:00,
2013-05-09 14:42:00,59.0,35.0,-100.00,SE,138,9.0,15.0,40,-99.99,,,0.07,475.000000,,2013-05-09 20:42:00,
2013-05-09 14:52:00,59.0,35.0,-100.00,SE,138,9.0,15.0,40,-99.99,,,0.07,475.000000,,2013-05-09 20:52:00,
2013-05-09 15:01:00,59.0,35.0,-100.00,SE,138,9.0,15.0,40,-99.99,,,0.07,475.000000,,2013-05-09 21:01:00,
2013-05-09 16:33:00,62.0,29.0,-100.00,NW,322,15.0,26.0,28,-99.99,,,0.07,574.000000,,2013-05-09 22:33:00,
2013-05-09 16:42:00,62.0,29.0,-100.00,NW,322,15.0,26.0,28,-99.99,,,0.07,574.000000,,2013-05-09 22:42:00,
2013-05-09 16:52:00,62.0,29.0,-100.00,NW,322,15.0,26.0,28,-99.99,,,0.07,574.000000,,2013-05-09 22:52:00,
2013-05-09 17:02:00,62.0,29.0,-100.00,NW,322,15.0,26.0,28,-99.99,,,0.07,574.000000,,2013-05-09 23:02:00,
2013-05-09 17:32:00,62.0,33.0,-100.00,NW,309,13.0,25.0,33,0.00,,,0.03,590.000000,,2013-05-09 23:32:00,
2013-05-09 17:42:00,62.0,33.0,-100.00,NW,309,13.0,25.0,33,0.00,,,0.03,590.000000,,2013-05-09 23:42:00,
2013-05-09 17:52:00,62.0,33.0,-100.00,NW,309,13.0,25.0,33,0.00,,,0.03,590.000000,,2013-05-09 23:52:00,
2013-05-09 18:01:00,62.0,33.0,-100.00,NW,309,13.0,25.0,33,0.00,,,0.03,590.000000,,2013-05-10 00:01:00,
2013-05-09 19:32:00,59.0,33.0,-100.00,NW,306,7.0,17.0,38,-99.99,,,0.00,151.000000,,2013-05-10 01:32:00,
2013-05-09 19:42:00,59.0,33.0,-100.00,NW,306,7.0,17.0,38,-99.99,,,0.00,151.000000,,2013-05-10 01:42:00,
2013-05-09 19:52:00,59.0,33.0,-100.00,NW,306,7.0,17.0,38,-99.99,,,0.00,151.000000,,2013-05-10 01:52:00,
2013-05-09 20:01:00,59.0,33.0,-100.00,NW,306,7.0,17.0,38,-99.99,,,0.00,151.000000,,2013-05-10 02:01:00,
2013-05-09 20:32:00,57.0,32.0,-100.00,WNW,290,8.0,13.0,39,0.00,,,0.00,68.000000,,2013-05-10 02:32:00,
2013-05-09 20:42:00,57.0,32.0,-100.00,WNW,290,8.0,13.0,39,0.00,,,0.00,68.000000,,2013-05-10 02:42:00,
2013-05-09 20:52:00,57.0,32.0,-100.00,WNW,290,8.0,13.0,39,0.00,,,0.00,68.000000,,2013-05-10 02:52:00,
2013-05-09 21:01:00,57.0,32.0,-100.00,WNW,290,8.0,13.0,39,0.00,,,0.00,68.000000,,2013-05-10 03:01:00,
2013-05-09 21:33:00,56.0,33.0,-100.00,West,277,7.0,15.0,41,0.00,,,0.00,13.000000,,2013-05-10 03:33:00,
2013-05-09 21:43:00,56.0,33.0,-100.00,West,277,7.0,15.0,41,0.00,,,0.00,13.000000,,2013-05-10 03:43:00,
2013-05-09 21:53:00,56.0,33.0,-100.00,West,277,7.0,15.0,41,0.00,,,0.00,13.000000,,2013-05-10 03:53:00,
2013-05-09 22:02:00,56.0,33.0,-100.00,West,277,7.0,15.0,41,0.00,,,0.00,13.000000,,2013-05-10 04:02:00,
2013-05-09 22:33:00,54.0,32.0,-100.00,SSW,212,6.0,9.0,43,0.00,,,0.00,0.000000,,2013-05-10 04:33:00,
2013-05-09 22:43:00,54.0,32.0,-100.00,SSW,212,6.0,9.0,43,0.00,,,0.00,0.000000,,2013-05-10 04:43:00,
2013-05-09 22:53:00,54.0,32.0,-100.00,SSW,212,6.0,9.0,43,0.00,,,0.00,0.000000,,2013-05-10 04:53:00,
2013-05-09 23:02:00,54.0,32.0,-100.00,SSW,212,6.0,9.0,43,0.00,,,0.00,0.000000,,2013-05-10 05:02:00,
2013-05-09 23:32:00,52.0,32.0,-100.00,South,170,4.0,7.0,46,0.00,,,0.00,0.000000,,2013-05-10 05:32:00,
2013-05-09 23:42:00,52.0,32.0,-100.00,South,170,4.0,7.0,46,0.00,,,0.00,0.000000,,2013-05-10 05:42:00,
2013-05-09 23:52:00,52.0,32.0,-100.00,South,170,4.0,7.0,46,0.00,,,0.00,0.000000,,2013-05-10 05:52:00,